Location: ???????????
(54.5822°N, 39.1075°E)
Time: 05:38:10
(UTC+00:00)

ACS3 Solar Sail - Visible Passes

Search period start: 06 June 2026 00:00
Search period end: 16 June 2026 00:00
Orbit: 883 x 949 km, 97.2° (Epoch: 5 June)

Date Brightness Start Highest point End Pass type
(mag) Time Alt. Az. Time Alt. Az. Time Alt. Az.
6 Jun 2.4 21:21:27 10° NNE 21:26:54 42° E 21:31:24 15° SSE visible
6 Jun 2.4 23:03:49 10° N 23:09:13 44° WNW 23:14:40 10° SW visible
7 Jun 2.2 21:28:36 10° NNE 21:34:09 47° E 21:38:43 15° SSE visible
7 Jun 2.5 23:11:04 10° N 23:16:21 39° WNW 23:21:41 10° SW visible
8 Jun 3.9 19:56:25 10° ENE 19:57:43 11° ENE 19:59:02 10° E visible
8 Jun 2.1 21:35:41 10° NNE 21:41:20 54° E 21:45:57 16° S visible
8 Jun 2.7 23:18:15 10° N 23:23:24 35° WNW 23:28:37 10° SW visible
9 Jun 3.8 20:02:35 10° NE 20:04:56 12° ENE 20:07:18 10° ESE visible
9 Jun 1.9 21:42:40 10° NNE 21:48:24 60° E 21:53:05 16° S visible
9 Jun 2.8 23:25:21 10° N 23:30:22 32° WNW 23:35:25 10° WSW visible
10 Jun 3.7 20:09:02 10° NE 20:12:02 14° E 20:15:04 10° ESE visible
10 Jun 1.8 21:49:36 10° NNE 21:55:22 68° E 22:00:08 16° S visible
10 Jun 3.0 23:32:21 10° N 23:37:13 29° WNW 23:42:07 10° WSW visible
11 Jun 3.6 20:15:31 10° NE 20:19:03 16° E 20:22:34 10° ESE visible
11 Jun 1.7 21:56:27 10° NNE 22:02:15 76° ESE 22:07:06 16° S visible
11 Jun 3.1 23:39:18 10° N 23:43:59 26° WNW 23:48:43 10° WSW visible
12 Jun 3.5 20:22:02 10° NE 20:25:57 18° E 20:29:53 10° SE visible
12 Jun 1.7 22:03:13 10° NNE 22:09:02 85° ESE 22:13:58 15° SSW visible
12 Jun 3.2 23:46:10 10° N 23:50:40 24° NW 23:55:12 10° WSW visible
13 Jun 3.3 20:28:30 10° NE 20:32:46 21° E 20:37:02 10° SE visible
13 Jun 1.7 22:09:54 10° NNE 22:15:44 87° WNW 22:20:45 15° SSW visible
14 Jun 3.2 20:34:55 10° NE 20:39:29 23° E 20:44:02 10° SE visible
14 Jun 1.7 22:16:30 10° NNE 22:22:19 79° WNW 22:27:26 14° SSW visible
15 Jun 3.1 20:41:17 10° NNE 20:46:05 26° E 20:50:43 11° SE visible
15 Jun 1.8 22:23:01 10° N 22:28:49 71° WNW 22:34:02 13° SSW visible
